Location: Brusselsch Zeekanaal
(50.8667°N, 4.3667°E)
Time: 05:43:12
(UTC+00:00)

SL-08 RB Rocket - Visible Passes

Search period start: 09 February 2026 00:00
Search period end: 19 February 2026 00:00
Orbit: 633 x 666 km, 97.8° (Epoch: 8 February)

Date Brightness Start Highest point End Pass type
(mag) Time Alt. Az. Time Alt. Az. Time Alt. Az.
9 Feb 5.2 03:51:42 10° NNE 03:54:10 31° NNE 03:54:10 31° NNE visible
9 Feb 5.2 05:29:19 10° NNW 05:31:57 19° NW 05:31:57 19° NW visible
10 Feb 6.7 02:42:25 10° NE 02:43:07 12° NE 02:43:07 12° NE visible
10 Feb 4.6 04:18:00 10° N 04:20:54 38° N 04:20:54 38° N visible
10 Feb 5.6 05:56:40 10° NNW 05:58:28 12° NW 05:58:41 12° WNW visible
11 Feb 6.1 03:07:58 10° NE 03:09:52 20° NE 03:09:52 20° NE visible
11 Feb 4.5 04:44:27 10° N 04:47:39 35° NNW 04:47:39 35° NNW visible
12 Feb 5.4 03:33:56 10° NNE 03:36:36 31° NE 03:36:36 31° NE visible
12 Feb 4.8 05:11:06 10° N 05:14:23 25° NW 05:14:23 25° NW visible
13 Feb 4.5 04:00:08 10° NNE 04:03:21 45° NNE 04:03:21 45° NNE visible
13 Feb 5.3 05:38:01 10° NNW 05:40:52 16° WNW 05:41:08 16° WNW visible
14 Feb 6.4 02:50:33 10° NE 02:52:18 17° ENE 02:52:18 17° ENE visible
14 Feb 4.1 04:26:29 10° N 04:30:04 48° NNW 04:30:04 48° NNW visible
14 Feb 5.7 06:06:00 10° NW 06:06:46 10° NW 06:07:33 10° WNW visible
15 Feb 5.6 03:16:16 10° NNE 03:19:02 27° ENE 03:19:02 27° ENE visible
15 Feb 4.4 04:52:59 10° N 04:56:49 34° WNW 04:56:49 34° WNW visible
16 Feb 4.7 03:42:18 10° NNE 03:45:46 45° NE 03:45:46 45° NE visible
16 Feb 4.9 05:19:41 10° N 05:23:12 22° WNW 05:23:33 22° WNW visible
17 Feb 6.6 02:33:26 10° NE 02:34:43 13° ENE 02:34:43 13° ENE visible
17 Feb 3.8 04:08:32 10° NNE 04:12:30 65° N 04:12:30 65° N visible
17 Feb 5.4 05:46:46 10° NNW 05:49:10 14° NW 05:50:17 13° WNW visible
18 Feb 6.0 02:58:42 10° NE 03:01:26 22° ENE 03:01:26 22° ENE visible
18 Feb 3.9 04:34:56 10° N 04:39:14 49° WNW 04:39:14 49° WNW visible
